This demonstration page uses our WeatherBlox Daily Observations layout. Learn more.

Left ArrowRight Arrow

Hourly Observations for July 31, 2018

Temp ( °F °C ) Dew Point ( °F °C ) Humidity (%) Winds ( mph kmh ) Pressure ( in mb ) Visibility ( mi km ) Precip ( " mm )
12:53 am 00:53 Clear 59 15 58 14.4 96 96 NW 7 11 30.18 1022 10 16 0.00 0.00
1:53 am 01:53 Clear 58 14.4 56 13.3 93 93 Calm 30.19 1022 10 16 0.00 0.00
2:53 am 02:53 Clear 57 13.9 55 12.8 93 93 NNW 5 7 30.17 1022 10 16 0.00 0.00
3:53 am 03:53 Clear 56 13.3 54 12.2 93 93 Calm 30.17 1022 10 16 0.00 0.00
4:53 am 04:53 Clear 54 12.2 53 11.7 97 97 WNW 5 7 30.18 1022 10 16 0.00 0.00
5:53 am 05:53 Clear 54 12.2 53 11.7 97 97 Calm 30.18 1022 10 16 0.00 0.00
6:53 am 06:53 Sunny 55 12.8 53 11.7 93 93 NNW 3 6 30.19 1022 10 16 0.00 0.00
7:53 am 07:53 Sunny 59 15 55 12.8 87 87 NNW 3 6 30.18 1022 10 16 0.00 0.00
8:53 am 08:53 Sunny 64 17.8 58 14.4 81 81 NNW 6 9 30.17 1022 10 16 0.00 0.00
9:53 am 09:53 Sunny 67 19.4 59 15 76 76 NW 7 11 30.17 1022 10 16 0.00 0.00
10:53 am 10:53 Sunny 70 21.1 59 15 68 68 NW 7 11 30.16 1021 10 16 0.00 0.00
11:53 am 11:53 Sunny 73 22.8 59 15 62 62 W 3 6 30.16 1022 10 16 0.00 0.00
12:53 pm 12:53 Sunny 76 24.4 60 15.6 58 58 NW 5 7 30.15 1021 10 16 0.00 0.00
1:53 pm 13:53 Sunny 76 24.4 56 13.3 50 50 VRB 3 6 30.14 1021 10 16 0.00 0.00
2:53 pm 14:53 Sunny 78 25.6 57 13.9 48 48 VRB 7 11 30.13 1020 10 16 0.00 0.00
3:53 pm 15:53 Sunny 78 25.6 56 13.3 47 47 W 6 9 30.11 1020 10 16 0.00 0.00
4:53 pm 16:53 Sunny 79 26.1 56 13.3 45 45 WNW 6 9 30.10 1019 10 16 0.00 0.00
5:53 pm 17:53 Sunny 79 26.1 57 13.9 47 47 WNW 6 9 30.09 1019 10 16 0.00 0.00
6:53 pm 18:53 Sunny 78 25.6 57 13.9 48 48 Calm 30.07 1018 10 16 0.00 0.00
7:53 pm 19:53 Sunny 77 25 56 13.3 48 48 Calm 30.07 1018 10 16 0.00 0.00
8:53 pm 20:53 Clear 74 23.3 58 14.4 57 57 Calm 30.06 1018 10 16 0.00 0.00
9:53 pm 21:53 Clear 69 20.6 59 15 70 70 Calm 30.07 1018 10 16 0.00 0.00
10:53 pm 22:53 Clear 68 20 57 13.9 68 68 S 5 7 30.06 1018 10 16 0.00 0.00
11:53 pm 23:53 Clear 66 18.9 59 15 78 78 S 7 11 30.05 1018 10 16 0.00 0.00

Powered by AerisWeather